Wind_Speed
27 27 27 28 28 27 27 27 28 28 27 26 26 26 27 28 28 28 28 28 28 28 27 27 26 26 26 26 26 26 26 26 26 25 24 25 27 29 29 28 27 27 29 29 29 28 27 26 26 27 29 32 35 38 40 42 43 43 42 41 41 41 41 42 42 39 36 34 34
29 27 27 27 27 26 25 26 27 27 26 26 26 26 27 28 28 28 28 28 27 27 26 25 25 25 24 23 22 21 20 20 22 22 24 25 28 30 30 29 28 27 28 28 28 27 26 26 26 28 31 33 36 39 40 41 41 41 41 40 40 40 41 42 43 41 38 36 35
32 29 28 27 26 25 25 26 26 26 25 25 25 26 26 27 28 28 28 27 27 26 25 25 24 24 23 22 19 18 16 17 18 20 22 25 28 30 31 30 28 27 26 26 26 26 26 26 27 29 32 34 36 38 40 40 40 39 39 40 40 40 41 42 43 43 41 38 37
32 30 29 27 25 24 24 25 25 25 24 24 25 25 26 26 27 27 27 26 26 25 24 24 24 23 21 20 18 16 15 15 15 17 20 24 28 30 30 29 28 27 25 25 25 25 26 27 28 30 32 33 35 37 39 39 39 39 39 39 40 40 41 42 44 44 43 41 39
32 31 29 27 24 23 22 23 23 23 23 23 24 25 25 25 25 25 25 25 24 24 23 23 22 21 20 18 17 15 15 14 15 16 20 24 27 28 29 28 27 26 25 25 24 24 25 27 29 31 32 32 33 35 37 39 40 40 40 40 40 41 41 42 44 45 45 44 41
32 30 29 26 24 21 20 20 21 21 21 22 23 24 24 24 24 24 24 24 23 23 22 22 21 20 18 17 16 15 14 14 14 16 18 22 25 26 27 27 27 26 26 25 24 24 25 27 30 31 31 31 32 33 35 37 39 40 40 40 41 41 41 43 45 46 46 46 44
31 29 28 26 24 21 19 19 19 20 20 20 22 23 23 23 23 23 23 23 22 22 21 21 19 18 16 15 15 14 13 13 13 14 16 18 21 23 25 26 26 26 26 26 25 24 25 27 30 32 32 32 32 32 33 35 37 38 39 40 41 41 41 43 44 46 46 46 45
29 28 27 25 23 21 19 19 19 20 20 20 21 22 23 22 22 22 22 22 22 21 21 19 17 15 14 13 13 12 11 11 11 12 13 15 17 19 21 23 25 26 26 25 25 25 25 27 30 32 34 34 33 33 33 34 35 37 38 39 40 40 41 42 43 45 46 46 45
27 26 25 25 23 21 19 19 20 20 20 20 21 22 22 21 21 21 21 21 21 20 19 17 15 14 13 12 11 11 10 10 10 11 12 14 15 17 20 23 25 26 26 26 26 26 26 27 29 32 34 35 36 36 35 35 36 37 38 38 39 40 40 42 43 44 45 45 45
26 25 25 24 23 21 19 19 20 21 21 21 21 21 21 21 20 20 20 20 20 19 18 16 15 14 13 12 12 11 10 10 9 10 11 13 15 18 21 24 26 28 28 28 28 28 28 29 31 33 35 36 37 38 38 38 37 37 38 38 39 39 39 41 42 44 44 44 45
25 24 25 24 23 21 20 21 21 21 21 21 21 21 21 21 20 20 20 20 19 19 18 16 16 15 14 13 13 12 11 10 10 10 11 12 14 17 21 24 27 29 30 30 30 30 31 32 34 35 36 36 37 38 39 39 39 38 38 39 39 39 38 39 41 43 44 45 45
24 24 24 24 24 22 22 22 21 20 21 21 22 22 23 23 22 22 22 22 21 20 19 18 17 16 16 15 14 13 12 11 11 11 11 12 13 16 19 22 25 27 29 30 31 31 32 34 36 37 37 36 36 37 38 39 39 39 38 38 38 38 38 38 39 41 43 44 44
23 24 24 24 24 23 23 23 21 20 20 22 22 24 25 25 25 25 24 24 23 22 20 19 18 17 16 15 14 13 13 12 11 11 11 12 13 15 17 21 23 25 27 28 29 30 31 33 34 35 35 35 34 35 36 37 38 38 38 38 38 38 38 38 39 40 41 42 43
24 25 25 24 24 23 23 23 20 19 21 22 23 24 25 27 27 26 25 24 23 22 21 19 18 18 16 14 13 12 12 12 12 12 12 12 13 15 18 20 23 24 25 26 27 28 28 29 30 31 32 32 33 33 33 34 35 37 38 38 39 39 39 39 39 39 40 41 42
25 25 25 23 23 23 23 23 21 21 21 23 22 23 25 27 27 25 24 23 23 22 20 19 18 18 16 14 12 11 11 11 12 12 13 13 15 17 20 22 23 24 25 25 26 27 27 28 29 30 31 32 33 33 32 32 33 34 36 37 38 38 39 39 39 39 40 40 41
25 24 23 23 22 22 23 23 23 23 23 22 21 22 23 25 25 24 22 22 22 21 20 19 18 17 16 14 12 11 11 11 12 13 14 15 17 19 21 23 23 24 24 25 26 27 28 28 29 29 31 32 33 33 33 32 32 32 34 35 37 38 38 38 39 39 39 40 40
25 23 23 23 22 22 22 22 23 24 24 22 21 21 21 22 23 22 21 21 21 21 21 20 19 16 14 13 12 12 13 14 15 15 15 17 19 21 22 22 23 23 23 24 25 26 27 28 29 29 30 31 32 33 33 32 32 31 32 33 34 36 37 38 38 39 39 39 40
25 23 22 22 22 22 22 22 22 24 24 23 21 20 19 19 20 20 20 20 21 21 21 19 17 15 13 12 12 13 15 17 17 17 17 18 19 20 21 21 22 22 22 23 24 25 27 28 29 29 30 31 32 32 33 33 32 31 31 31 32 33 35 36 37 38 38 39 39
23 22 22 22 22 22 22 22 23 23 23 22 21 19 18 18 18 18 19 19 20 19 18 16 14 13 12 12 13 14 15 16 17 18 18 18 19 20 20 21 22 23 24 24 24 25 27 28 29 30 31 32 32 33 32 31 30 30 30 31 31 32 32 33 34 36 36 37 38
22 21 21 21 22 22 23 23 22 22 21 20 19 18 17 16 16 16 16 16 16 15 14 13 13 12 12 12 12 13 14 14 15 16 17 18 19 20 20 20 22 24 25 26 25 25 27 28 30 31 32 32 32 30 28 27 26 27 29 31 32 32 32 32 32 33 34 35 35
21 21 22 22 23 23 22 21 20 19 18 17 17 16 15 13 12 12 12 12 12 11 11 10 10 9 9 9 10 10 11 11 12 13 14 15 17 17 18 19 21 22 23 24 24 25 26 28 29 30 30 30 28 26 24 24 24 26 28 30 32 32 32 32 32 32 33 33 33
22 23 22 22 22 21 20 19 17 16 16 15 15 14 13 12 11 10 9 9 9 9 8 8 6 6 6 7 7 8 9 9 9 9 10 11 12 13 14 15 16 16 16 17 18 20 21 23 24 25 25 24 23 23 24 25 26 26 27 29 31 33 34 34 34 34 34 33 33
22 22 21 20 20 19 19 18 16 16 15 14 14 14 14 14 13 11 11 10 11 11 10 9 8 7 6 7 7 7 7 7 7 7 8 9 10 11 11 12 12 12 12 12 12 13 15 17 19 20 21 22 23 25 27 28 29 29 30 30 32 33 35 36 37 37 37 35 35
20 19 19 18 18 18 18 17 17 16 15 15 15 15 15 14 14 14 14 14 14 14 13 13 12 11 10 9 8 8 8 8 7 8 11 13 15 15 15 15 15 15 15 15 14 14 15 17 18 20 21 23 25 28 29 31 31 32 32 33 34 35 36 38 38 39 38 38 37
18 18 18 18 18 18 18 18 17 17 16 15 15 16 15 14 14 15 15 14 14 14 14 14 14 13 12 12 11 11 11 11 12 13 15 17 19 20 20 20 20 20 20 20 19 19 19 19 20 22 23 25 27 29 31 31 32 32 33 33 35 36 37 37 37 37 38 37 37
19 19 19 18 18 18 18 18 17 16 16 15 14 14 13 12 12 13 13 12 12 12 12 13 13 12 11 12 13 14 14 15 15 16 17 18 19 19 19 20 20 21 21 21 20 20 20 20 21 22 24 25 26 27 28 29 29 29 30 32 34 35 36 36 36 35 35 35 35
19 19 19 18 17 17 16 16 15 15 14 13 13 12 12 11 11 11 11 11 11 12 12 12 13 14 13 13 14 14 15 15 15 16 16 16 16 16 16 16 17 18 18 19 19 19 20 20 21 22 21 21 22 23 24 24 25 26 28 29 32 33 35 35 34 33 32 31 32
17 17 17 16 15 14 14 14 14 14 14 13 13 13 12 12 12 12 12 12 13 13 14 14 15 16 15 15 15 15 15 15 15 15 15 15 14 13 13 13 14 15 16 17 18 19 19 20 20 20 19 18 19 20 21 22 23 24 26 27 29 31 32 32 31 30 28 28 29
14 14 13 13 13 14 15 15 15 15 14 14 14 14 14 14 14 14 14 14 14 14 15 15 16 16 16 15 15 15 15 14 14 14 13 12 12 11 11 12 13 13 14 15 15 16 17 18 18 18 17 17 17 18 19 20 22 24 25 26 27 27 27 27 27 26 26 26 27
12 12 13 14 15 16 17 17 16 16 15 15 15 15 15 15 15 15 15 15 15 15 15 15 16 16 15 15 14 13 13 12 11 11 10 10 9 9 10 10 10 10 10 11 12 13 13 14 15 15 15 15 16 16 18 19 21 22 23 24 24 24 24 24 24 24 25 26 27
13 14 16 17 18 18 18 18 17 17 17 16 16 16 16 16 16 15 15 15 15 15 15 15 15 15 14 13 12 11 10 9 9 8 7 7 7 7 7 7 7 8 8 9 9 9 9 10 10 11 11 12 13 14 16 17 18 19 20 21 21 22 22 23 23 24 25 26 28
15 17 18 18 19 19 19 18 18 18 17 17 17 17 17 16 16 15 14 14 13 13 13 13 13 13 12 11 10 9 8 7 6 6 6 6 5 6 6 6 6 7 8 8 7 6 6 6 7 7 8 8 10 11 13 14 16 17 18 19 19 20 21 22 23 24 25 27 29
17 18 19 18 19 18 18 18 18 18 17 17 17 16 16 15 14 13 12 11 11 11 11 10 10 10 9 8 8 7 6 6 6 5 5 5 5 5 5 6 7 7 8 7 6 5 4 4 4 5 6 7 8 9 11 12 14 15 16 18 19 20 21 22 23 24 26 28 30
17 18 18 18 18 18 18 17 17 17 17 16 16 15 14 13 12 10 9 9 8 8 8 8 8 8 7 7 6 6 6 6 6 6 6 6 5 5 6 6 7 7 7 7 6 5 5 4 4 4 5 6 7 9 11 12 14 15 16 17 19 20 21 22 24 26 28 30 32
16 17 17 17 17 17 17 17 16 15 15 15 14 13 12 10 9 8 7 7 6 6 6 6 6 6 6 6 6 6 6 6 6 6 6 6 6 6 6 7 7 8 7 7 7 6 6 5 5 4 3 4 6 8 10 12 14 15 16 18 19 20 22 24 25 27 29 32 34
16 17 17 17 16 16 16 15 15 14 13 13 12 11 10 9 8 7 6 5 5 5 5 5 5 5 6 6 6 7 7 7 7 7 7 7 7 7 7 8 8 9 8 8 7 7 6 5 4 4 3 2 4 6 9 12 14 15 17 18 20 21 23 25 27 28 30 32 35
17 17 17 16 16 15 15 14 13 12 12 11 10 9 8 7 7 6 6 5 5 5 4 4 5 5 5 6 6 7 7 7 7 7 7 7 7 7 8 9 9 10 9 9 8 7 6 5 4 3 2 1 1 4 7 10 12 15 17 18 20 22 24 26 28 30 31 33 35
16 16 16 16 15 14 14 13 11 10 9 9 8 7 7 6 6 6 6 5 5 5 5 5 5 5 5 6 6 6 7 7 7 7 6 7 7 8 8 9 10 10 9 8 7 6 6 5 4 4 3 3 1 2 5 8 11 13 16 18 20 23 25 27 28 30 32 33 33
15 14 14 13 13 12 12 10 9 8 7 7 7 6 6 6 6 6 6 6 5 5 5 5 5 5 6 6 6 6 7 8 8 7 7 7 7 8 8 9 9 9 9 8 7 5 4 3 3 3 3 3 2 2 3 6 9 12 15 17 20 23 25 27 29 31 32 32 33
12 12 11 11 11 10 10 9 8 7 7 7 7 7 7 6 6 6 6 6 5 5 5 5 5 6 6 6 6 6 6 7 8 8 7 7 8 8 9 8 9 9 8 7 6 4 3 2 2 2 2 2 2 2 3 4 7 10 14 17 20 22 25 27 29 30 31 31 30
10 10 10 10 10 9 9 9 8 8 7 7 7 7 7 7 7 6 6 5 5 5 5 5 5 5 6 6 6 5 6 6 7 7 7 7 8 8 8 8 8 8 8 7 6 4 3 2 1 1 1 1 2 2 3 3 6 9 12 15 18 21 23 25 27 28 28 27 26
Wind_Direction
170 167 163 162 162 163 164 168 173 176 176 174 174 177 181 183 183 183 185 187 189 190 192 193 194 196 199 203 206 207 209 211 213 213 212 213 215 218 218 217 214 212 213 216 219 220 221 223 224 226 226 226 224 219 214 210 207 205 206 207 208 209 209 207 204 203 204 206 207
176 170 164 163 163 163 164 168 172 174 174 173 174 178 181 182 182 183 183 185 186 187 188 189 190 192 197 203 207 210 211 211 212 211 210 211 214 217 219 218 216 215 215 217 219 220 222 224 226 227 227 226 223 218 214 210 208 207 207 209 210 211 211 209 208 207 207 208 210
175 170 166 164 164 163 164 167 171 172 172 171 174 178 181 182 183 183 183 184 185 186 186 186 188 191 195 201 206 209 209 209 209 208 208 209 214 217 219 219 218 218 219 220 220 220 221 224 226 227 226 224 222 218 214 211 209 208 209 211 212 213 212 211 209 208 208 210 212
173 169 166 166 165 164 164 166 170 171 171 171 175 178 180 182 183 184 184 184 184 184 184 186 187 190 194 199 204 207 209 210 209 208 208 210 214 217 219 220 220 221 223 225 223 220 220 223 225 225 224 222 221 218 214 211 210 210 211 212 214 214 214 212 211 209 210 211 214
171 170 168 168 168 167 165 167 170 171 172 173 176 178 180 181 182 183 183 182 181 182 183 185 187 189 192 197 202 207 211 213 213 211 210 212 215 219 221 222 222 225 228 231 227 221 219 220 222 222 221 220 219 218 215 213 212 212 213 214 215 216 216 214 213 211 211 212 215
170 170 170 169 170 170 169 170 171 172 173 174 177 178 178 179 180 180 180 179 179 180 183 186 188 189 192 196 201 207 213 216 217 216 214 215 218 222 225 227 229 231 233 233 229 222 218 218 218 218 217 217 217 217 216 216 215 215 215 215 216 217 217 216 215 213 213 214 216
169 169 169 169 170 172 172 173 174 174 174 176 177 177 176 177 177 177 177 176 176 178 183 187 189 190 192 196 200 205 210 215 218 217 216 216 219 223 227 230 232 234 234 232 227 222 219 219 218 217 215 215 215 216 216 217 218 218 217 217 218 218 219 218 217 216 215 216 218
166 167 168 168 170 172 174 175 175 174 174 176 176 175 175 175 174 175 175 175 175 179 184 188 189 190 192 195 199 202 206 211 216 217 216 215 216 219 223 227 229 231 230 228 225 221 220 220 221 219 217 216 216 216 218 219 220 220 219 219 219 220 221 220 219 218 218 219 220
162 164 167 169 170 172 174 175 174 174 175 177 176 175 174 173 173 173 174 175 177 181 186 187 187 188 191 194 197 201 206 210 216 219 218 216 214 216 218 221 224 225 226 224 223 222 221 222 223 223 221 220 219 219 220 221 221 221 221 221 221 222 223 222 221 221 221 221 221
161 165 169 171 172 172 172 174 175 176 176 176 175 174 173 172 172 172 174 176 178 182 186 186 185 186 189 192 197 202 208 213 217 221 222 220 215 214 214 216 219 220 221 222 221 222 222 222 223 223 223 223 222 222 222 222 222 222 222 223 223 223 223 223 223 223 223 223 223
164 169 173 175 174 173 172 174 177 177 176 174 174 174 173 171 171 172 174 175 178 182 186 186 185 186 188 191 195 200 206 213 219 223 225 223 218 215 215 216 217 218 218 219 220 220 221 221 220 220 222 224 224 224 223 223 223 223 224 225 224 224 224 225 225 225 225 225 225
168 173 177 178 176 174 174 176 176 176 174 173 174 176 175 173 173 174 175 176 179 182 185 185 186 187 188 190 193 198 204 212 219 224 226 225 222 219 218 218 218 217 216 217 218 219 219 218 217 217 219 222 225 225 225 225 225 226 226 227 227 226 226 227 227 227 227 227 227
173 175 177 177 175 176 177 177 176 174 172 174 177 179 179 179 179 179 179 179 180 182 183 183 184 186 186 187 190 194 201 210 218 224 227 227 225 222 221 221 220 218 217 217 218 218 218 216 216 216 219 223 226 228 229 230 230 230 230 230 229 229 229 230 230 229 229 228 228
176 177 176 175 175 176 178 178 176 173 173 177 181 183 183 183 184 184 184 183 183 183 182 182 182 182 183 183 186 192 200 208 217 223 226 228 227 224 221 219 220 220 220 220 221 222 221 220 220 222 225 228 230 232 234 235 236 235 235 234 233 233 233 233 233 232 230 229 229
180 178 175 173 173 175 177 179 177 176 177 181 184 185 185 185 186 187 187 186 186 186 185 185 184 182 181 181 185 193 203 212 218 222 225 227 227 225 221 217 215 216 219 223 225 226 227 227 228 230 232 233 234 235 237 238 239 240 240 239 238 238 237 236 236 235 233 232 231
182 178 173 172 172 175 178 180 180 181 183 186 186 185 185 186 187 189 190 190 189 189 190 189 187 186 184 184 188 197 207 216 221 222 224 225 226 226 223 217 213 212 215 221 226 228 230 230 231 232 234 235 236 236 237 238 240 241 242 243 242 242 241 240 239 238 237 236 235
181 175 171 172 175 179 182 184 186 187 188 190 189 187 187 188 189 192 194 195 194 194 193 193 192 192 194 197 202 209 214 218 221 223 225 226 227 228 226 222 217 214 213 217 223 227 230 231 232 233 234 235 236 237 237 238 239 241 242 244 244 244 243 243 242 241 240 240 239
176 172 171 175 180 184 188 190 190 191 192 194 193 192 193 195 196 198 200 202 202 200 198 197 200 205 212 220 226 228 227 225 224 224 226 228 230 231 231 229 226 223 219 217 219 223 227 231 232 234 235 235 236 237 237 238 239 241 243 244 245 245 245 245 244 244 243 242 242
170 172 175 180 184 189 191 191 191 192 194 196 197 199 201 203 204 204 205 207 208 208 207 207 213 222 231 238 241 240 237 233 229 228 229 231 232 233 234 235 235 233 229 224 219 219 222 228 231 233 234 235 235 235 236 238 241 244 245 246 246 246 245 245 245 245 245 245 245
172 175 179 182 185 186 187 188 189 192 194 198 200 202 203 205 206 205 204 205 207 209 211 216 222 228 235 240 243 243 241 237 233 232 232 232 231 232 233 236 239 239 237 232 225 219 218 222 226 229 231 232 232 232 235 239 244 246 247 247 246 246 246 246 247 246 246 246 246
175 177 178 179 180 181 183 185 187 190 192 193 195 197 197 196 196 196 195 196 198 201 206 211 217 224 229 233 235 237 237 235 232 230 230 231 230 229 231 234 238 241 241 237 230 223 219 218 220 223 226 227 229 233 238 243 247 247 246 246 245 246 246 247 247 246 246 246 246
174 173 174 174 175 176 178 180 180 180 181 181 182 182 179 175 172 173 178 183 185 187 191 195 201 211 217 217 216 220 224 223 220 220 222 227 229 230 231 232 235 239 241 239 232 225 220 218 218 220 224 229 235 241 245 248 249 249 248 246 246 246 246 247 247 246 245 245 244
170 170 170 172 173 174 174 172 168 166 165 165 166 165 162 158 156 158 164 168 170 172 175 177 181 188 195 196 197 202 208 209 208 211 218 224 228 231 232 231 233 236 240 240 235 229 226 224 225 229 234 240 244 246 245 245 246 248 248 248 247 246 246 246 245 244 243 243 243
167 167 168 170 171 171 168 164 159 156 155 155 156 157 157 156 159 165 171 175 177 180 183 185 190 195 200 201 202 204 206 207 210 219 226 231 234 236 238 238 237 237 238 240 240 239 237 238 239 242 244 245 242 239 236 236 239 241 244 245 246 245 244 242 240 239 238 238 238
161 162 162 162 163 162 161 158 156 153 152 153 156 159 160 162 170 178 184 187 190 193 195 197 198 201 205 209 211 213 214 217 221 228 233 238 240 241 243 244 245 244 244 244 243 242 242 243 244 245 244 242 237 233 231 230 232 235 238 241 242 241 239 236 233 231 230 231 233
150 151 151 151 153 155 157 158 158 156 155 154 157 160 163 167 177 184 188 190 191 194 196 195 192 191 194 202 209 213 216 219 224 229 234 238 240 242 244 246 247 248 248 247 246 243 241 240 240 241 240 239 236 232 230 229 230 232 236 238 239 237 234 231 228 226 226 228 230
140 142 144 147 151 154 157 158 157 156 154 152 151 153 157 161 165 168 170 171 173 177 180 180 181 182 184 189 197 203 208 213 217 223 228 232 235 238 240 243 245 245 245 243 240 238 235 234 234 236 236 235 233 230 229 228 230 233 236 237 236 234 231 229 227 226 226 228 231
137 142 147 151 154 154 152 148 145 144 144 144 145 147 149 149 149 152 156 161 166 172 176 178 181 184 186 188 192 196 202 206 210 216 221 226 230 233 237 239 241 241 240 238 237 235 234 233 233 234 234 232 229 228 228 229 231 233 233 232 231 230 229 228 228 228 229 231 232
140 147 152 153 149 144 138 135 133 135 137 139 143 145 146 147 149 154 161 168 173 177 180 182 185 188 191 194 197 201 204 207 211 216 222 227 232 236 239 240 241 241 240 240 239 239 238 237 236 235 234 233 232 232 233 234 234 233 231 228 227 226 227 228 229 231 233 235 234
141 144 143 139 135 133 132 132 134 137 140 142 144 146 148 152 157 164 172 179 183 185 187 189 190 192 195 200 205 208 210 213 217 223 229 235 239 241 241 240 238 238 238 238 239 240 239 238 236 234 233 235 238 241 241 240 238 234 229 226 224 224 225 227 229 232 235 236 235
130 130 130 129 130 131 133 135 138 141 144 146 149 152 157 162 169 175 182 187 190 192 194 194 195 198 202 206 210 213 214 218 223 229 233 235 235 235 233 231 228 226 226 229 232 235 237 236 234 232 231 235 241 246 247 246 241 235 230 225 223 223 225 227 229 232 234 234 232
126 126 127 128 131 134 138 141 144 147 150 154 158 164 169 174 179 184 188 192 194 195 196 197 199 202 206 209 211 213 215 217 221 225 224 222 220 219 219 217 215 216 217 219 220 224 230 235 237 237 235 237 242 248 251 250 247 242 237 231 228 227 228 229 231 232 232 230 227
131 131 132 133 137 141 144 147 151 154 159 164 169 174 178 181 184 187 190 192 194 195 196 197 199 201 203 205 205 205 207 211 213 213 210 207 205 205 206 206 207 210 211 210 205 204 211 227 238 243 245 246 248 250 253 254 253 250 246 242 238 237 236 235 234 232 229 225 221
137 137 138 140 143 147 151 155 159 164 168 173 177 181 183 183 183 184 186 188 190 191 192 192 193 195 195 194 191 188 192 198 200 200 198 197 196 196 196 197 199 200 200 196 189 184 184 193 207 224 239 249 253 255 255 254 253 251 249 246 245 244 242 240 235 230 224 219 215
141 141 141 143 147 152 157 162 167 171 175 179 182 183 183 181 178 176 175 176 178 179 181 184 187 189 189 188 185 182 182 185 188 189 189 188 187 184 183 185 186 184 181 175 169 166 165 170 176 185 203 235 253 258 257 254 251 249 248 246 244 243 240 237 232 226 220 216 212
145 146 147 149 153 158 163 168 172 175 178 181 183 183 180 176 171 165 161 158 156 157 163 171 178 181 181 181 181 181 180 179 180 181 181 179 174 171 171 172 171 167 161 154 147 143 142 143 148 155 166 209 254 261 259 255 251 249 246 244 240 237 234 231 226 221 217 213 209
149 153 156 158 161 164 168 172 175 177 178 179 179 177 173 168 161 153 144 137 131 130 138 151 159 164 168 171 173 175 176 175 172 169 167 165 161 158 159 161 159 154 146 139 131 123 117 111 109 109 106 86 281 265 259 253 249 246 242 238 234 230 227 223 219 215 211 208 206
155 161 165 166 167 169 171 173 174 175 174 173 168 162 156 149 140 133 128 124 117 114 120 134 144 151 156 160 161 163 163 162 159 156 152 151 149 147 147 149 150 145 137 129 121 111 101 94 86 78 68 50 8 286 262 251 245 241 237 232 227 224 220 216 212 209 206 204 203
161 167 170 171 170 170 170 170 169 167 163 156 146 137 129 122 117 116 119 121 120 117 118 125 132 140 145 149 150 152 154 154 151 149 145 142 141 140 139 141 143 138 131 125 119 111 101 88 73 59 46 29 4 319 274 253 243 237 232 227 222 218 215 211 207 204 201 199 199
166 169 170 170 169 167 165 162 159 153 146 138 127 119 114 110 108 111 116 120 123 123 122 122 126 131 137 141 144 147 151 153 149 145 140 138 137 136 135 136 137 133 128 124 124 120 111 93 71 48 28 2 339 315 283 258 243 235 228 222 218 213 209 206 203 199 196 194 193
166 167 166 164 163 160 157 153 147 141 136 129 123 118 116 115 113 113 113 115 116 117 116 116 118 122 129 135 139 143 147 149 147 141 136 136 136 134 133 133 134 131 127 126 127 126 121 107 86 58 21 331 311 301 286 260 244 235 226 219 215 210 205 201 198 194 191 188 186
Height
1387 1388 1388 1390 1392 1395 1397 1399 1400 1402 1402 1403 1404 1405 1406 1408 1410 1412 1414 1415 1417 1419 1421 1422 1424 1426 1427 1429 1430 1432 1434 1435 1437 1438 1440 1441 1442 1443 1444 1445 1446 1448 1450 1451 1452 1454 1455 1456 1457 1458 1459 1460 1461 1462 1464 1465 1466 1468 1469 1470 1472 1474 1475 1476 1478 1479 1480 1482 1483
1387 1388 1389 1390 1392 1395 1396 1398 1400 1401 1401 1402 1403 1404 1405 1407 1409 1411 1413 1415 1416 1418 1420 1422 1424 1425 1427 1428 1429 1431 1433 1434 1436 1437 1438 1440 1441 1442 1443 1444 1445 1447 1448 1450 1451 1452 1453 1454 1455 1457 1458 1459 1460 1461 1462 1464 1465 1467 1468 1470 1471 1473 1474 1475 1476 1478 1479 1480 1481
1387 1388 1389 1390 1392 1394 1396 1397 1399 1399 1400 1401 1402 1404 1405 1407 1409 1410 1412 1414 1416 1418 1420 1421 1423 1425 1426 1427 1429 1430 1432 1433 1435 1436 1437 1439 1440 1441 1442 1443 1444 1445 1447 1448 1450 1451 1452 1453 1454 1455 1456 1457 1459 1460 1461 1463 1464 1465 1467 1468 1470 1471 1472 1474 1475 1476 1478 1479 1480
1386 1387 1388 1390 1392 1393 1395 1396 1397 1398 1399 1400 1402 1403 1405 1407 1409 1410 1412 1414 1416 1417 1419 1420 1422 1424 1425 1426 1428 1429 1430 1432 1433 1435 1436 1437 1439 1440 1440 1442 1443 1444 1445 1447 1448 1450 1451 1452 1453 1454 1455 1456 1457 1458 1460 1461 1463 1464 1465 1467 1468 1469 1470 1472 1473 1474 1475 1477 1478
1385 1386 1387 1390 1391 1393 1394 1395 1396 1397 1398 1400 1401 1403 1405 1407 1409 1410 1412 1414 1415 1417 1418 1420 1421 1423 1424 1425 1427 1428 1430 1431 1432 1433 1435 1437 1438 1439 1440 1440 1442 1443 1444 1445 1447 1448 1450 1451 1452 1453 1453 1454 1456 1457 1459 1460 1461 1463 1464 1465 1466 1468 1469 1470 1471 1472 1474 1475 1476
1384 1385 1387 1389 1390 1392 1393 1394 1395 1396 1398 1400 1401 1403 1405 1407 1408 1410 1412 1413 1415 1416 1418 1419 1420 1422 1423 1425 1426 1427 1429 1430 1431 1432 1434 1435 1437 1438 1439 1440 1441 1442 1443 1444 1445 1447 1448 1450 1451 1452 1452 1453 1455 1456 1457 1459 1460 1461 1463 1464 1465 1466 1467 1468 1469 1470 1472 1473 1475
1383 1384 1386 1388 1390 1391 1392 1393 1395 1396 1398 1400 1401 1403 1405 1407 1408 1410 1411 1413 1414 1416 1417 1418 1420 1421 1423 1424 1425 1427 1428 1429 1430 1431 1433 1434 1435 1436 1437 1438 1439 1440 1441 1443 1444 1445 1447 1448 1450 1451 1451 1452 1453 1455 1456 1458 1459 1460 1461 1462 1463 1464 1465 1466 1467 1469 1470 1471 1472
1381 1383 1385 1387 1389 1390 1391 1393 1395 1397 1398 1400 1402 1403 1405 1407 1408 1410 1411 1413 1414 1415 1416 1417 1419 1420 1422 1423 1425 1426 1427 1428 1429 1430 1431 1432 1434 1435 1436 1436 1437 1439 1440 1441 1442 1444 1445 1447 1448 1450 1450 1451 1452 1454 1455 1456 1457 1459 1460 1460 1462 1463 1464 1465 1466 1467 1468 1470 1471
1379 1381 1384 1386 1388 1390 1392 1393 1395 1397 1399 1400 1402 1404 1405 1407 1409 1410 1411 1413 1414 1415 1415 1417 1419 1420 1421 1422 1424 1425 1426 1427 1428 1429 1430 1431 1432 1434 1435 1435 1436 1437 1438 1439 1441 1442 1444 1445 1446 1448 1449 1450 1451 1452 1453 1455 1456 1457 1458 1459 1460 1461 1462 1463 1464 1465 1466 1468 1469
1378 1380 1383 1386 1388 1390 1392 1394 1396 1397 1399 1401 1403 1404 1406 1407 1409 1410 1411 1412 1413 1414 1415 1417 1418 1419 1420 1421 1423 1424 1425 1426 1428 1429 1430 1430 1431 1432 1434 1435 1435 1435 1436 1438 1439 1441 1442 1443 1444 1446 1447 1448 1450 1451 1452 1453 1454 1455 1456 1457 1458 1459 1460 1462 1463 1464 1465 1466 1467
1378 1381 1384 1386 1389 1391 1393 1395 1396 1398 1400 1401 1403 1404 1406 1407 1409 1410 1411 1412 1413 1414 1415 1416 1417 1419 1420 1421 1422 1423 1424 1426 1427 1428 1429 1430 1430 1431 1433 1434 1434 1435 1435 1436 1438 1439 1440 1441 1442 1444 1445 1446 1448 1450 1450 1451 1452 1454 1455 1455 1456 1458 1459 1460 1461 1462 1463 1464 1465
1379 1382 1385 1387 1390 1392 1394 1395 1397 1398 1400 1401 1403 1404 1405 1407 1408 1409 1410 1411 1412 1413 1414 1415 1417 1418 1419 1420 1421 1422 1424 1425 1426 1427 1428 1429 1430 1431 1432 1433 1433 1434 1435 1435 1436 1437 1438 1440 1440 1442 1443 1445 1446 1448 1449 1450 1451 1452 1453 1454 1455 1456 1458 1459 1460 1460 1461 1462 1464
1381 1384 1386 1389 1391 1392 1394 1395 1397 1398 1400 1401 1402 1403 1405 1405 1406 1407 1408 1410 1411 1412 1413 1415 1416 1417 1419 1420 1421 1422 1423 1425 1425 1427 1428 1428 1429 1430 1431 1432 1433 1433 1434 1435 1435 1436 1437 1438 1440 1441 1442 1444 1445 1446 1448 1449 1450 1451 1452 1453 1454 1455 1456 1457 1458 1459 1460 1461 1462
1382 1385 1387 1389 1391 1392 1394 1395 1397 1398 1399 1400 1401 1403 1404 1404 1405 1406 1408 1409 1410 1411 1413 1414 1415 1417 1418 1419 1420 1421 1422 1424 1425 1426 1427 1428 1429 1429 1430 1431 1432 1433 1434 1434 1435 1436 1437 1438 1439 1440 1441 1442 1444 1445 1446 1447 1449 1450 1450 1451 1452 1453 1454 1455 1456 1457 1458 1460 1460
1384 1386 1388 1390 1391 1392 1394 1395 1396 1397 1399 1400 1401 1402 1403 1403 1405 1406 1408 1409 1410 1411 1412 1414 1415 1416 1417 1419 1420 1421 1422 1423 1424 1425 1426 1427 1428 1428 1429 1430 1431 1432 1433 1434 1435 1435 1436 1437 1438 1439 1440 1441 1442 1443 1445 1446 1447 1448 1449 1450 1450 1451 1452 1454 1455 1455 1457 1457 1459
1385 1387 1389 1390 1391 1392 1393 1395 1396 1397 1399 1400 1401 1401 1402 1403 1404 1406 1408 1409 1410 1411 1412 1413 1415 1415 1417 1418 1419 1420 1421 1422 1423 1424 1425 1426 1427 1427 1428 1428 1429 1430 1432 1433 1433 1434 1435 1436 1436 1437 1438 1439 1440 1441 1443 1444 1445 1446 1447 1448 1449 1450 1451 1452 1453 1454 1455 1455 1457
1386 1387 1389 1390 1391 1392 1394 1395 1396 1397 1399 1400 1400 1400 1401 1402 1404 1406 1407 1408 1410 1410 1412 1413 1414 1415 1416 1417 1418 1419 1420 1421 1422 1423 1424 1425 1426 1426 1427 1427 1428 1429 1430 1431 1432 1433 1433 1434 1435 1436 1437 1438 1439 1440 1441 1442 1443 1444 1445 1446 1447 1448 1449 1450 1451 1452 1453 1454 1455
1386 1387 1389 1390 1391 1393 1394 1395 1396 1397 1399 1399 1399 1400 1401 1402 1404 1406 1407 1408 1409 1410 1410 1412 1413 1414 1415 1416 1417 1418 1419 1420 1421 1422 1423 1424 1425 1425 1425 1426 1427 1428 1429 1430 1431 1431 1432 1433 1433 1434 1435 1436 1437 1438 1440 1440 1442 1443 1444 1445 1445 1446 1447 1448 1449 1450 1451 1452 1453
1385 1387 1388 1390 1391 1393 1394 1395 1396 1397 1398 1398 1399 1400 1401 1403 1404 1405 1406 1408 1408 1409 1410 1411 1412 1413 1414 1415 1416 1417 1418 1419 1420 1420 1421 1422 1423 1424 1425 1425 1426 1427 1428 1429 1429 1430 1430 1431 1432 1433 1434 1435 1436 1437 1438 1439 1440 1441 1442 1443 1444 1445 1445 1446 1447 1448 1449 1450 1451
1385 1387 1388 1390 1392 1393 1394 1395 1396 1396 1397 1398 1399 1400 1402 1403 1404 1405 1406 1407 1408 1409 1410 1411 1412 1413 1414 1414 1415 1416 1416 1417 1418 1419 1420 1421 1422 1423 1423 1424 1425 1426 1426 1427 1427 1428 1429 1430 1430 1431 1432 1433 1434 1435 1437 1438 1439 1440 1441 1441 1442 1442 1443 1444 1445 1446 1447 1448 1449
1386 1388 1389 1391 1392 1393 1394 1395 1395 1396 1397 1398 1399 1400 1401 1402 1403 1404 1405 1406 1407 1409 1410 1410 1411 1412 1413 1413 1414 1415 1415 1416 1417 1418 1419 1420 1420 1421 1422 1423 1424 1424 1425 1425 1426 1426 1427 1428 1429 1430 1430 1432 1433 1435 1436 1437 1438 1438 1439 1440 1440 1441 1441 1442 1443 1444 1445 1446 1447
1387 1388 1390 1390 1391 1392 1393 1394 1395 1396 1397 1398 1399 1400 1401 1402 1403 1404 1405 1406 1407 1408 1409 1410 1410 1411 1412 1413 1414 1414 1415 1416 1416 1417 1418 1419 1420 1420 1421 1421 1422 1423 1423 1424 1425 1425 1426 1427 1428 1429 1430 1431 1432 1434 1435 1435 1435 1436 1437 1438 1439 1439 1440 1440 1441 1442 1443 1444 1445
1387 1388 1389 1390 1391 1392 1393 1394 1395 1395 1396 1397 1399 1400 1401 1402 1403 1404 1405 1405 1406 1407 1407 1408 1410 1410 1411 1412 1413 1414 1415 1415 1416 1417 1417 1418 1418 1419 1419 1420 1421 1422 1423 1423 1424 1425 1425 1426 1427 1428 1429 1430 1431 1432 1433 1433 1434 1434 1435 1436 1437 1438 1438 1439 1439 1440 1440 1442 1443
1387 1388 1389 1390 1391 1392 1392 1393 1394 1395 1396 1397 1398 1399 1400 1401 1402 1402 1402 1403 1404 1405 1405 1407 1408 1409 1410 1411 1412 1413 1414 1414 1415 1415 1415 1416 1416 1417 1418 1418 1420 1420 1421 1422 1423 1424 1425 1426 1426 1427 1428 1429 1429 1430 1431 1431 1432 1433 1433 1434 1435 1436 1437 1437 1438 1439 1440 1440 1442
1387 1388 1389 1390 1390 1391 1392 1393 1394 1395 1396 1397 1398 1398 1399 1400 1400 1400 1401 1401 1402 1404 1405 1406 1408 1409 1410 1410 1411 1412 1412 1413 1413 1413 1413 1414 1415 1416 1416 1417 1418 1419 1419 1420 1421 1422 1423 1424 1425 1426 1427 1427 1428 1429 1430 1430 1431 1431 1432 1433 1434 1435 1435 1436 1437 1438 1438 1439 1440
1387 1387 1388 1389 1390 1391 1392 1393 1394 1395 1395 1396 1397 1398 1398 1399 1399 1399 1400 1401 1402 1403 1405 1406 1407 1408 1409 1409 1410 1410 1410 1411 1411 1412 1412 1413 1414 1415 1416 1417 1417 1418 1419 1419 1420 1421 1422 1423 1424 1425 1425 1426 1427 1427 1428 1429 1430 1430 1431 1432 1432 1433 1434 1434 1435 1435 1436 1438 1439
1386 1387 1388 1389 1390 1391 1392 1393 1394 1395 1395 1396 1396 1397 1397 1398 1398 1399 1400 1401 1402 1403 1404 1405 1406 1406 1407 1408 1408 1409 1409 1410 1410 1411 1412 1413 1414 1414 1415 1416 1417 1417 1418 1419 1420 1420 1421 1422 1423 1424 1424 1425 1426 1426 1427 1428 1429 1430 1430 1431 1431 1431 1431 1432 1433 1434 1435 1437 1439
1386 1387 1388 1389 1390 1391 1392 1393 1394 1395 1395 1396 1396 1396 1397 1397 1398 1399 1400 1400 1401 1402 1403 1404 1405 1405 1406 1406 1407 1408 1408 1409 1410 1411 1411 1412 1413 1414 1415 1416 1416 1417 1417 1418 1419 1420 1420 1421 1422 1422 1423 1424 1424 1425 1425 1426 1427 1428 1429 1429 1430 1430 1430 1431 1432 1434 1435 1436 1438
1386 1387 1388 1389 1390 1391 1392 1393 1394 1395 1395 1395 1395 1396 1396 1397 1398 1399 1399 1400 1401 1401 1402 1403 1404 1405 1405 1406 1406 1407 1408 1409 1410 1411 1412 1413 1414 1414 1415 1415 1416 1416 1417 1417 1418 1419 1420 1420 1420 1421 1422 1423 1423 1424 1425 1425 1425 1426 1427 1427 1428 1429 1430 1430 1432 1433 1434 1435 1436
1387 1388 1389 1390 1390 1391 1392 1393 1394 1394 1394 1394 1395 1395 1396 1396 1397 1398 1399 1399 1400 1401 1402 1403 1404 1405 1405 1406 1406 1407 1408 1410 1410 1411 1412 1413 1413 1414 1414 1415 1415 1415 1416 1417 1418 1418 1419 1419 1420 1420 1421 1422 1422 1423 1424 1424 1425 1425 1425 1426 1427 1428 1429 1430 1431 1432 1433 1434 1435
1387 1388 1389 1390 1391 1391 1392 1392 1393 1393 1393 1393 1394 1395 1395 1396 1396 1397 1398 1399 1400 1401 1402 1403 1404 1405 1405 1406 1407 1408 1409 1410 1410 1411 1412 1412 1413 1413 1413 1414 1414 1415 1416 1416 1417 1418 1418 1419 1419 1420 1420 1421 1422 1422 1423 1423 1424 1424 1425 1426 1426 1427 1428 1429 1430 1431 1432 1433 1434
1388 1388 1389 1390 1390 1391 1391 1391 1391 1392 1392 1393 1394 1394 1395 1395 1396 1397 1398 1399 1400 1401 1402 1403 1404 1405 1405 1406 1407 1408 1409 1410 1410 1411 1411 1412 1412 1412 1413 1413 1414 1415 1415 1416 1417 1417 1418 1418 1419 1419 1420 1420 1421 1422 1422 1423 1423 1424 1425 1425 1426 1427 1428 1428 1429 1430 1431 1432 1433
1388 1388 1389 1389 1390 1390 1390 1391 1391 1392 1393 1393 1394 1395 1395 1396 1397 1398 1399 1400 1401 1402 1403 1404 1404 1405 1406 1407 1407 1408 1409 1410 1410 1410 1411 1411 1411 1412 1412 1413 1414 1414 1415 1416 1416 1417 1417 1418 1419 1419 1420 1420 1421 1421 1422 1423 1423 1424 1425 1425 1426 1426 1427 1428 1429 1429 1430 1431 1432
1388 1389 1389 1389 1390 1390 1391 1391 1392 1392 1393 1394 1395 1395 1396 1397 1398 1399 1400 1401 1402 1402 1403 1404 1405 1405 1406 1407 1407 1408 1409 1409 1410 1410 1410 1411 1411 1412 1412 1413 1413 1414 1415 1415 1416 1416 1417 1418 1418 1419 1419 1420 1420 1421 1421 1422 1423 1423 1424 1425 1425 1426 1427 1427 1428 1429 1429 1430 1431
1388 1389 1389 1390 1390 1391 1391 1392 1393 1393 1394 1395 1395 1396 1397 1398 1399 1400 1401 1401 1402 1403 1403 1404 1405 1405 1406 1406 1407 1408 1408 1409 1410 1410 1410 1410 1411 1411 1412 1413 1413 1414 1415 1415 1416 1416 1417 1417 1418 1418 1419 1419 1420 1420 1421 1422 1422 1423 1423 1424 1425 1425 1426 1426 1427 1428 1428 1429 1430
1389 1389 1390 1390 1390 1391 1392 1392 1393 1394 1395 1395 1396 1397 1398 1399 1400 1400 1401 1402 1402 1403 1403 1404 1405 1405 1406 1406 1407 1407 1408 1409 1409 1410 1410 1410 1411 1411 1412 1413 1413 1414 1415 1415 1416 1416 1417 1417 1418 1418 1419 1419 1420 1420 1420 1421 1421 1422 1423 1423 1424 1424 1425 1425 1426 1427 1428 1428 1429
1389 1390 1390 1390 1391 1392 1392 1393 1394 1395 1395 1396 1397 1398 1399 1399 1400 1401 1401 1402 1402 1403 1403 1404 1405 1405 1406 1406 1407 1407 1408 1409 1409 1410 1410 1410 1411 1412 1412 1413 1413 1414 1415 1415 1416 1416 1417 1417 1418 1418 1419 1419 1419 1420 1420 1420 1421 1421 1422 1422 1423 1424 1424 1425 1425 1426 1427 1428 1428
1390 1390 1390 1391 1392 1392 1393 1394 1395 1395 1396 1397 1398 1398 1399 1400 1400 1401 1401 1402 1402 1403 1403 1404 1405 1405 1406 1406 1407 1407 1408 1409 1409 1410 1410 1411 1411 1412 1412 1413 1414 1414 1415 1415 1416 1417 1417 1417 1418 1418 1419 1419 1419 1420 1420 1420 1420 1421 1421 1422 1422 1423 1424 1425 1425 1426 1427 1428 1429
1390 1391 1391 1392 1393 1393 1394 1395 1395 1396 1397 1398 1398 1399 1400 1400 1400 1401 1401 1402 1402 1403 1404 1404 1405 1405 1406 1406 1407 1407 1408 1409 1409 1410 1410 1411 1411 1412 1413 1413 1414 1415 1415 1416 1416 1417 1417 1418 1418 1418 1419 1419 1419 1420 1420 1420 1420 1421 1421 1422 1422 1423 1424 1424 1425 1426 1426 1428 1429
1391 1392 1393 1393 1394 1394 1395 1395 1396 1397 1397 1398 1399 1399 1400 1400 1401 1401 1402 1402 1403 1403 1404 1404 1405 1405 1406 1406 1407 1407 1408 1409 1409 1410 1410 1411 1411 1412 1413 1413 1414 1415 1415 1416 1417 1417 1418 1418 1418 1419 1419 1419 1419 1420 1420 1420 1420 1421 1421 1422 1422 1423 1423 1424 1425 1426 1427 1428 1429
1392 1393 1393 1394 1394 1395 1395 1396 1396 1397 1398 1398 1399 1400 1400 1400 1401 1401 1402 1402 1403 1403 1404 1404 1405 1405 1406 1406 1407 1408 1408 1409 1409 1410 1411 1411 1412 1412 1413 1414 1414 1415 1415 1416 1417 1417 1418 1418 1418 1419 1419 1419 1419 1420 1420 1420 1420 1421 1421 1422 1422 1423 1424 1425 1425 1427 1428 1429 1430